Regional Weather Roundup
Issued by NWS

Home | Current Version | Previous Version | Graphics & Text | Print | Product List | Glossary On
Versions: 1 2 3 4 5 6 7 8 9 10 11 12 13 14 15 16 17 18 19 20 21 22 23 24 25 26 27 28 29 30 31 32 33 34 35 36 37 38 39 40 41 42 43 44 45 46 47 48 49 50
689
ASUS44 KOUN 260410
RWROK

WEATHER ROUNDUP FOR OKLAHOMA
NATIONAL WEATHER SERVICE NORMAN OK
1000 PM CST WED NOV 25 2020

NOTE: "FAIR" INDICATES FEW OR NO CLOUDS BELOW 12,000 FEET WITH NO
      SIGNIFICANT WEATHER AND/OR OBSTRUCTIONS TO VISIBILITY.

OKZ001>007-009>012-014-015-017-260500-
NORTHWEST OKLAHOMA AND THE PANHANDLE

CITY           SKY/WX    TMP DP  RH WIND       PRES   REMARKS
GAGE           CLEAR     45  27  49 S17       29.93F
GUYMON         CLEAR     34  29  82 S6        29.86F WCI  29
ENID/WOODRING  CLEAR     36  34  93 CALM      30.00R
$$

OKZ016-021>023-033>039-044-045-260500-
SOUTHWEST OKLAHOMA

CITY           SKY/WX    TMP DP  RH WIND       PRES   REMARKS
LAWTON/REGL    CLEAR     41  33  73 SE3       30.02S
LAWTON/FT SILL CLEAR     44  30  59 S3        30.00F
FREDERICK      CLEAR     47  27  45 SE12      29.97F
CLINTON        CLEAR     45  29  53 SE12      29.98F
HOBART         CLEAR     46  30  53 S12       29.99F
ALTUS AFB      CLEAR     41 N/A N/A SE7       29.98F
$$

OKZ018>020-024>031-260500-
CENTRAL OKLAHOMA

CITY           SKY/WX    TMP DP  RH WIND       PRES   REMARKS
OKLAHOMA CITY  CLEAR     40  29  64 S3        30.02S
OKC/WILEY POST CLEAR     41  29  62 S5        30.01S
OKC/TINKER AFB CLEAR     44  26  49 SE7       30.01F
STILLWATER     CLEAR     36  31  82 E3        30.02S
GUTHRIE        CLEAR     37  31  78 SE7       30.01F WCI  32
$$

OKZ008-013-054>072-260500-
NORTHEAST OKLAHOMA

CITY           SKY/WX    TMP DP  RH WIND       PRES   REMARKS
TULSA          CLEAR     40  33  76 S3        30.05R
TULSA/JONES    CLEAR     33  33 100 CALM      30.05S
PONCA CITY     CLEAR     40  32  73 SE6       30.01F
BARTLESVILLE   CLEAR     31  30  96 CALM      30.06R
MUSKOGEE       CLEAR     37  33  85 CALM      30.07R
$$

OKZ032-040>043-046>053-073>077-260500-
SOUTH CENTRAL/SOUTHEAST OKLAHOMA

CITY           SKY/WX    TMP DP  RH WIND       PRES   REMARKS
ARDMORE/DWNTWN CLEAR     39  32  76 CALM      30.05S
MCALESTER      PTCLDY    36  33  89 CALM      30.06S
$$





USA.gov is the U.S. government's official web portal to all federal, state and local government web resources and services.